Lapse_Rate
6.4 6.3 6.6 6.7 6.7 6.9 6.9 6.8 6.3 5.8 5.5 5.4 5.2 5.7 6.0 5.8 5.5 5.6 5.8 5.4 4.8 4.8 4.6 5.2 5.8 5.5 5.5 5.5 5.5 5.4 5.5 5.6 5.9 6.0 6.1 6.0 6.1 6.1 6.0 5.6 5.8 6.0 5.8 5.6
6.5 6.6 6.6 6.3 6.3 6.3 6.4 6.5 6.3 6.2 5.9 6.0 5.9 6.0 5.9 5.9 6.2 5.8 5.9 5.9 5.8 5.3 5.2 5.1 5.3 5.6 5.6 5.6 5.3 5.4 5.8 5.8 5.8 5.9 6.0 5.8 5.9 6.1 6.1 6.0 5.9 5.8 5.6 5.6
6.9 6.5 6.7 7.1 5.9 6.0 5.9 6.0 6.1 5.9 5.6 5.6 6.2 6.4 6.3 6.2 5.9 6.0 6.1 6.0 6.0 6.0 6.0 5.9 5.8 5.5 5.4 5.4 5.4 5.4 5.4 5.7 6.0 5.9 6.1 6.1 6.0 6.2 6.2 6.1 5.9 5.8 5.8 5.8
7.1 7.0 7.4 6.1 6.2 6.2 6.0 6.0 5.7 5.9 5.9 6.0 6.1 6.2 6.1 6.3 6.2 6.1 6.1 6.2 6.2 6.3 6.1 6.0 6.2 6.1 6.1 6.1 6.0 5.9 5.8 5.8 5.7 5.7 5.9 6.2 6.2 6.2 6.3 6.1 5.9 5.8 5.8 5.8
7.3 7.0 6.2 6.1 6.2 6.2 6.1 6.0 5.9 5.8 5.9 5.9 5.8 5.7 6.0 6.1 6.1 6.3 6.4 6.4 6.2 6.0 6.1 6.1 6.1 6.4 6.5 6.4 6.5 6.6 6.4 6.2 6.1 6.0 6.1 6.2 6.2 6.3 6.3 6.3 6.1 6.0 5.8 5.7
6.7 7.0 7.3 6.5 6.3 6.4 6.4 5.9 5.9 5.9 5.8 5.9 5.9 5.6 6.1 6.1 6.3 6.2 6.2 6.2 6.4 6.6 6.6 6.5 6.5 6.5 6.5 6.5 6.3 6.1 6.1 6.1 6.1 6.1 6.0 5.9 6.0 5.9 5.8 5.8 5.9 5.8 5.7 5.7
5.9 6.1 5.6 6.1 6.3 6.1 6.2 5.7 5.8 5.9 5.9 6.0 6.1 6.1 6.1 6.2 6.3 6.5 6.7 6.6 6.4 6.4 6.4 6.5 6.4 6.3 6.3 6.5 6.6 6.5 6.5 6.4 6.3 6.2 6.2 6.2 6.0 6.0 5.9 5.9 6.0 6.0 5.9 6.0
4.9 5.3 5.3 4.6 4.9 4.7 4.9 5.4 5.5 5.6 5.9 6.1 6.1 6.1 6.1 6.1 6.1 6.2 6.3 6.5 6.5 6.6 6.5 6.4 6.4 6.4 6.3 6.2 6.2 6.3 6.4 6.5 6.5 6.4 6.4 6.4 6.3 6.3 6.4 6.3 6.2 6.2 6.2 6.2
4.6 4.7 4.7 4.7 4.7 4.6 4.6 4.4 4.6 4.7 5.0 5.3 5.6 5.9 6.0 6.0 6.0 6.0 6.1 6.2 6.3 6.4 6.3 6.3 6.4 6.3 5.9 6.0 6.0 6.1 6.2 6.4 6.5 6.6 6.7 6.9 6.9 6.8 6.8 6.6 6.5 6.5 6.4 6.3
4.6 5.0 5.0 4.9 4.8 4.7 4.7 4.7 4.8 4.8 4.7 4.7 4.8 4.9 5.0 5.1 5.6 6.0 6.2 6.2 6.1 6.0 6.1 6.2 6.1 6.2 6.0 5.6 5.6 6.0 6.1 6.2 6.6 6.5 6.6 6.7 6.7 6.7 6.9 7.0 7.0 6.8 6.7 6.7
5.0 5.0 5.0 5.1 5.1 5.1 5.0 4.9 4.9 4.9 4.9 5.0 5.0 5.1 4.9 5.0 5.1 5.2 5.2 5.3 5.5 5.9 6.1 6.1 6.2 6.2 6.3 6.3 6.2 6.3 6.2 6.4 6.4 6.5 6.7 6.6 6.6 6.6 6.5 6.5 6.7 6.7 6.7 6.6
4.7 5.0 4.8 4.8 5.0 5.1 5.2 5.2 5.1 5.0 5.0 5.0 5.1 5.0 5.1 5.1 5.2 5.3 5.3 5.5 5.5 5.6 5.7 5.9 6.1 6.3 6.3 6.4 6.4 6.5 6.6 6.6 6.6 6.5 6.5 6.5 6.5 6.6 6.4 6.5 6.4 6.4 6.5 6.5
5.1 5.1 4.9 4.7 4.7 4.9 4.9 5.2 5.3 5.3 5.3 5.1 5.2 5.2 5.2 5.2 5.3 5.3 5.4 5.6 5.7 5.8 5.9 6.0 6.0 6.0 6.1 6.4 6.6 6.6 6.6 6.7 6.7 6.5 6.5 6.5 6.5 6.3 6.1 6.1 6.1 6.1 6.3 6.3
5.4 5.2 5.1 5.0 5.0 5.0 5.0 5.1 5.2 5.4 5.7 5.7 5.6 5.5 5.4 5.4 5.4 5.5 5.6 5.7 5.8 5.9 6.1 6.2 6.3 6.3 6.4 6.6 6.6 6.7 6.8 6.8 6.7 6.7 6.6 6.5 6.5 6.5 6.2 5.9 6.1 6.2 6.2 6.2
5.8 5.6 5.4 5.3 5.2 5.3 5.2 5.2 5.3 5.4 5.6 5.8 6.0 6.0 5.8 5.8 5.8 5.8 5.8 5.9 6.0 6.0 6.1 6.2 6.3 6.5 6.6 6.8 6.9 6.8 6.8 6.7 6.9 7.0 7.0 6.9 6.6 6.4 6.2 6.2 6.3 6.3 6.4 6.4
5.8 5.7 5.6 5.3 5.2 5.2 5.2 5.3 5.3 5.4 5.5 5.7 6.0 6.2 6.3 6.3 6.1 6.0 6.0 6.0 6.1 6.1 6.1 6.3 6.4 6.5 6.6 6.7 6.7 6.7 6.7 6.7 6.7 6.7 6.8 6.7 6.7 6.7 6.6 6.3 6.0 6.0 6.2 6.3
6.0 5.8 5.7 5.4 5.2 5.1 5.1 5.2 5.3 5.6 5.7 5.8 6.0 6.2 6.4 6.5 6.5 6.4 6.3 6.2 6.1 6.0 6.0 6.2 6.3 6.4 6.6 6.7 6.9 7.0 7.1 6.9 6.9 6.8 6.8 6.8 6.6 6.6 6.6 6.5 6.3 6.2 6.2 6.3
6.1 6.0 5.8 5.5 5.3 5.2 5.2 5.1 5.2 5.4 5.6 5.7 5.9 6.1 6.3 6.5 6.5 6.6 6.6 6.4 6.2 6.1 5.9 6.0 6.1 6.3 6.6 6.8 6.9 6.9 6.9 7.0 6.9 6.8 6.7 6.5 6.6 6.6 6.3 6.4 6.3 6.3 6.2 6.2
6.0 5.9 5.7 5.4 5.3 5.1 5.1 5.0 5.1 5.2 5.4 5.6 5.7 6.0 6.2 6.3 6.5 6.6 6.6 6.4 6.2 6.0 6.0 6.0 6.1 6.3 6.6 6.7 6.8 6.9 7.0 7.1 7.0 6.8 6.7 6.6 6.4 6.5 6.5 6.4 6.3 6.1 6.0 5.7
6.0 5.7 5.5 5.2 5.1 5.0 4.9 4.9 5.0 5.2 5.4 5.5 5.7 6.0 6.2 6.4 6.5 6.5 6.4 6.2 6.1 6.0 5.9 5.9 6.0 6.3 6.4 6.5 6.6 6.7 6.9 7.0 7.0 6.9 6.7 6.5 6.4 6.1 6.2 6.0 5.9 5.9 5.5 5.2
5.7 5.5 5.3 5.0 4.9 4.9 4.9 4.9 5.0 5.1 5.3 5.5 5.7 5.9 6.1 6.3 6.3 6.3 6.2 6.1 6.0 5.9 5.8 5.9 6.1 6.2 6.3 6.4 6.6 6.7 6.8 6.8 6.7 6.7 6.6 6.2 6.1 6.0 6.2 6.0 5.9 5.8 5.8 5.7
5.6 5.3 5.0 4.9 4.7 4.7 4.8 5.0 5.0 5.2 5.4 5.5 5.5 5.8 6.0 6.1 6.2 6.1 6.0 5.9 5.9 5.9 5.9 6.0 6.1 6.2 6.3 6.4 6.6 6.8 6.9 6.9 6.8 6.7 6.5 6.2 6.1 6.1 6.1 6.0 6.3 6.2 6.1 6.1
5.3 5.0 4.7 4.6 4.5 4.5 4.7 5.0 5.1 5.3 5.3 5.3 5.4 5.7 5.8 5.9 6.1 6.2 6.1 6.0 6.0 6.0 6.1 6.1 6.2 6.3 6.4 6.6 6.8 6.9 7.0 7.1 7.1 7.0 6.8 6.7 6.5 6.4 6.5 6.4 6.3 6.1 6.0 5.9
5.1 4.8 4.7 4.5 4.4 4.5 4.8 5.0 5.0 5.2 5.2 5.1 5.2 5.5 5.7 5.8 6.0 6.0 6.1 6.2 6.2 6.3 6.4 6.5 6.6 6.6 6.8 6.9 7.0 7.2 7.4 7.4 7.4 7.4 7.2 7.3 7.2 7.1 7.0 6.9 6.8 6.6 6.6 6.2
4.9 4.7 4.6 4.5 4.5 4.6 4.7 4.9 4.8 5.1 5.1 4.9 4.9 5.2 5.5 5.7 5.9 5.8 5.9 6.0 6.3 6.5 6.8 6.7 6.7 6.8 7.0 7.2 7.4 7.5 7.6 7.6 7.5 7.6 7.5 7.5 7.5 7.5 7.3 7.2 7.0 7.2 6.7 6.6
4.6 4.5 4.4 4.4 4.3 4.6 4.5 4.5 4.6 4.5 4.9 4.9 4.8 4.9 5.4 5.6 5.6 5.6 5.7 5.9 6.2 6.5 6.8 6.9 6.9 7.1 7.2 7.3 7.5 7.7 7.8 7.7 7.7 7.6 7.7 7.6 7.6 7.7 7.6 7.5 7.5 7.4 7.4 7.2
4.4 4.3 4.3 4.2 4.3 4.5 4.2 4.2 4.4 4.5 4.5 4.7 5.0 4.9 5.1 5.3 5.2 5.3 5.4 5.8 6.1 6.4 6.8 6.9 7.0 7.0 7.2 7.3 7.5 7.7 7.9 7.8 7.8 7.7 7.7 7.7 7.7 7.8 7.8 7.7 7.8 7.6 7.5 7.5
Wind_Speed
7 7 12 12 16 18 13 14 9 14 17 13 13 14 15 14 14 15 17 16 15 14 11 10 11 10 9 7 6 4 5 6 7 7 8 9 9 9 8 9 8 8 10 9
6 8 12 15 17 15 14 15 15 16 15 10 12 12 14 14 14 15 15 14 13 12 12 10 11 9 8 7 5 4 5 6 7 7 7 7 8 8 8 8 9 9 9 9
3 2 5 5 12 9 13 13 10 10 9 10 12 14 14 14 14 14 13 13 12 12 10 8 8 7 7 7 7 6 6 6 6 8 8 8 8 7 7 7 8 8 8 8
2 4 2 3 5 8 12 12 11 10 10 9 10 13 14 13 13 13 12 12 11 9 7 6 8 8 6 6 7 7 7 6 7 8 7 8 7 7 7 6 6 5 6 7
2 5 4 3 2 3 5 8 10 10 9 8 3 6 16 14 13 12 12 11 9 8 8 8 9 7 7 6 5 5 6 6 5 6 6 7 6 6 6 6 6 5 5 6
1 2 1 4 4 4 5 2 7 8 9 9 8 7 7 11 13 13 12 11 11 10 10 10 8 6 6 5 5 5 4 5 6 6 6 6 6 6 4 6 6 4 5 4
3 2 4 4 2 3 3 4 4 5 7 10 9 6 5 7 9 10 10 12 10 10 10 10 7 7 7 8 8 5 4 3 4 4 4 6 5 4 4 5 5 4 5 5
1 0 4 1 3 4 5 5 5 5 6 7 7 6 6 7 8 9 10 11 11 10 10 11 11 8 9 10 6 4 4 4 4 3 3 4 5 5 6 6 6 7 6 4
4 3 3 3 5 4 2 5 4 4 4 4 3 4 5 5 7 8 8 9 8 8 10 11 11 10 9 8 8 6 5 5 3 2 3 3 4 4 4 5 5 5 5 5
3 4 5 5 4 4 3 5 4 4 3 1 3 3 3 4 5 6 7 8 7 8 9 9 9 9 9 8 8 8 7 8 6 3 0 2 1 2 5 5 5 5 5 5
2 4 4 5 4 5 5 4 3 3 3 3 1 1 1 2 3 4 4 4 5 6 7 8 8 9 8 7 6 5 4 4 4 4 3 3 3 3 3 4 4 2 3 4
2 9 5 10 10 8 6 4 3 1 1 2 3 1 0 2 1 1 3 3 4 4 5 6 6 7 8 9 8 6 4 3 2 1 2 2 1 3 5 8 7 8 7 3
2 9 3 10 10 8 6 4 3 1 1 2 2 2 0 1 1 2 3 3 4 4 4 4 4 4 4 4 5 5 5 5 3 2 1 2 1 2 3 3 9 10 10 11
9 12 7 10 6 8 6 4 3 2 1 1 2 1 0 1 3 2 1 2 2 2 2 2 2 2 2 3 3 2 1 1 1 2 2 1 1 2 3 3 3 2 10 11
12 1 2 9 9 8 6 5 5 4 3 3 1 2 2 3 2 1 2 1 1 0 1 1 3 2 2 3 2 2 2 2 3 1 3 3 2 2 2 3 3 4 3 3
12 5 7 10 10 8 7 5 5 5 4 4 4 2 1 2 1 0 1 1 2 3 3 4 4 2 2 3 3 3 2 3 4 2 2 2 2 2 2 2 3 3 3 3
14 8 9 9 9 9 8 6 5 4 3 3 2 2 1 1 1 2 3 3 3 4 5 5 4 2 3 2 3 3 2 3 4 3 2 2 3 2 2 2 3 3 3 3
6 8 8 7 10 9 7 5 4 4 4 3 2 2 3 3 4 4 4 3 4 5 5 4 3 3 3 3 3 3 3 3 3 3 3 2 2 3 3 4 4 2 2 2
8 8 9 6 8 7 6 5 4 4 3 4 3 4 4 4 4 4 3 4 5 5 5 3 4 4 4 3 3 3 3 4 3 3 3 4 3 3 3 3 3 3 3 3
8 8 8 7 6 5 5 3 4 5 4 3 3 4 4 5 4 4 4 6 6 4 1 2 4 5 4 4 5 4 4 4 4 4 3 3 3 3 3 4 5 4 3 3
10 9 9 8 7 5 4 4 4 5 3 3 4 5 5 5 3 3 4 5 4 4 4 6 4 4 3 4 4 4 4 4 4 4 3 4 4 4 4 4 3 4 4 3
8 7 6 6 5 4 4 4 5 3 4 4 4 4 4 6 5 5 7 7 3 5 3 4 4 8 6 6 4 4 4 4 4 3 4 4 4 4 4 4 4 4 4 4
6 5 5 5 4 3 3 4 4 4 5 5 6 6 6 5 4 5 6 4 5 5 4 4 6 10 10 5 5 4 5 4 4 4 3 3 3 4 4 4 4 4 4 3
6 6 5 5 5 4 5 4 5 5 5 4 5 5 5 5 5 6 6 9 10 8 6 6 7 11 12 5 5 5 5 4 4 3 4 6 3 4 4 4 4 4 4 5
6 5 5 5 5 5 5 4 3 5 6 6 6 6 7 6 6 4 3 3 7 6 5 9 12 13 6 5 5 5 4 4 3 3 4 4 4 4 4 4 4 4 4 4
7 5 5 6 4 3 3 3 4 4 4 5 5 5 5 5 5 5 4 7 5 7 6 5 4 5 6 5 4 4 4 4 4 4 5 3 3 3 4 4 4 4 4 3
3 4 3 3 3 3 4 4 4 5 5 5 6 4 4 3 4 5 6 5 5 5 4 4 3 5 4 4 3 4 3 3 5 2 2 3 3 3 4 4 4 4 3 3
Wind_Direction
63 64 50 45 53 60 58 70 71 80 65 57 55 52 53 52 46 55 50 35 28 29 28 47 75 78 81 66 56 82 119 123 114 120 123 129 130 131 130 134 141 130 125 131
76 62 63 55 31 54 50 80 95 86 74 76 62 60 48 49 45 41 41 49 46 40 28 27 49 62 72 87 91 88 98 99 104 115 114 117 116 119 119 119 117 120 126 128
123 308 291 39 11 29 57 46 44 69 54 61 62 59 48 42 46 42 38 31 35 34 41 41 42 59 72 88 91 95 107 110 122 130 130 128 128 124 125 133 137 134 130 132
354 277 79 54 43 24 66 44 43 60 49 63 82 73 60 47 46 39 35 31 23 24 34 43 67 71 80 85 97 110 118 129 140 138 132 132 133 125 113 120 114 112 119 128
286 48 113 132 95 30 8 42 27 34 39 50 98 117 46 41 46 45 32 24 28 21 28 50 47 56 77 77 87 99 116 116 122 126 124 129 116 124 121 117 115 125 137 140
53 120 125 61 81 358 340 77 28 30 31 17 356 65 48 28 31 40 42 30 27 33 45 52 39 41 67 69 71 68 92 119 131 136 143 137 148 133 134 138 133 147 146 160
66 72 101 99 25 358 255 101 79 52 38 41 67 61 67 43 46 44 44 44 46 50 50 49 48 66 72 56 48 44 62 73 100 126 133 131 123 127 131 117 135 144 156 173
196 160 133 92 175 295 88 96 89 61 49 71 83 86 75 66 55 44 46 45 41 52 52 40 25 60 62 54 46 53 65 79 91 86 74 122 134 145 151 153 167 172 178 181
351 44 85 82 79 97 47 109 82 76 59 71 86 91 71 58 49 53 48 44 46 65 62 43 39 42 48 12 9 22 46 74 87 91 119 145 161 175 184 189 197 188 183 189
212 139 138 129 120 103 86 90 81 66 63 51 98 98 66 49 45 45 41 38 36 51 61 66 62 55 42 12 9 28 30 29 17 9 33 164 249 191 211 204 220 200 189 211
146 160 156 184 175 148 129 118 102 68 49 51 86 68 94 119 109 97 78 65 52 60 61 54 47 49 45 39 51 67 47 36 24 5 347 14 357 328 315 344 342 291 235 227
232 168 195 171 168 164 157 144 103 87 81 44 342 331 33 112 91 126 114 89 77 68 75 67 60 55 40 27 22 14 52 56 73 184 278 318 305 301 284 269 279 279 275 286
170 160 130 140 150 165 166 166 140 109 47 328 5 345 326 117 92 63 66 50 36 37 40 58 62 56 39 38 23 23 14 1 341 335 1 353 219 241 279 287 256 254 253 243
143 128 127 166 178 173 169 170 155 147 165 341 323 325 298 198 157 156 119 86 64 46 32 16 16 21 356 357 30 17 355 250 305 331 318 317 319 302 295 276 277 242 231 237
175 121 189 160 146 160 164 170 189 210 213 225 266 302 294 254 240 201 112 105 170 206 210 257 269 271 318 323 326 326 322 316 330 326 314 318 320 288 280 287 284 284 294 225
168 155 148 163 165 169 176 186 218 224 234 237 224 208 65 334 27 155 145 341 271 280 278 262 271 291 301 325 328 320 331 343 320 313 305 308 312 310 305 293 283 273 268 263
158 178 180 179 183 185 197 208 218 222 213 230 214 136 222 259 245 256 262 263 282 282 276 273 285 277 287 304 311 316 317 319 323 307 312 324 306 299 302 293 288 282 279 281
189 183 185 186 187 190 196 201 205 206 216 199 186 207 236 230 250 259 258 270 277 275 268 268 272 277 279 279 287 299 305 314 310 304 302 297 307 317 303 299 293 304 329 330
176 169 176 181 181 184 185 190 197 197 186 192 207 235 248 263 271 270 267 262 269 279 282 231 184 234 264 273 280 283 284 289 288 287 283 297 299 294 298 302 306 312 316 315
158 146 151 148 156 167 166 178 192 211 210 205 230 251 259 265 259 265 262 261 264 274 26 251 211 238 248 259 249 263 273 276 283 288 290 293 291 293 296 297 297 302 306 310
153 153 155 161 166 164 174 177 206 223 201 215 238 254 262 271 262 257 253 263 262 233 242 239 230 241 238 245 243 248 258 267 277 287 293 296 299 296 298 294 291 297 297 298
153 160 159 158 164 165 177 196 205 207 214 221 235 257 263 260 252 244 243 252 276 224 246 239 234 234 236 239 237 249 251 258 267 274 276 280 287 292 292 290 286 295 303 301
140 150 158 157 164 179 187 206 209 212 226 224 224 230 235 247 249 245 259 225 229 246 241 246 248 246 240 236 241 240 243 250 257 262 265 261 270 274 279 282 283 286 283 288
156 170 173 167 171 192 224 222 217 224 235 236 229 228 225 241 246 236 249 261 248 249 242 250 253 250 238 235 241 239 244 246 248 249 259 263 253 257 262 268 271 272 271 279
164 155 152 164 198 226 225 228 226 233 236 243 244 229 226 229 234 253 220 240 251 251 250 253 255 247 237 238 239 236 242 239 237 243 248 245 247 247 257 262 262 264 261 261
177 188 192 198 219 225 226 214 240 255 251 251 249 238 234 229 231 243 244 249 242 250 249 254 239 244 232 234 240 240 239 241 242 248 253 242 244 246 256 260 259 265 269 266
166 186 186 213 214 221 225 227 233 246 240 242 258 259 246 243 238 245 248 248 247 247 243 245 238 238 234 230 231 236 226 232 244 229 226 248 248 255 260 258 259 260 262 261